Page, AZ

4:20 AM MDT on March 26, 2017 (GMT -0600)
Page Municipal

Weather History for KPGA - October, 2014

Change the Weather History Date:

Monday, October 27, 2014

  Actual Average Record
Temperature  
Mean Temperature 62 °F -  
Max Temperature 70 °F 65 °F 78 °F (1959)
Min Temperature 52 °F 43 °F 35 °F (1970)
Degree Days  
Heating Degree Days 4    
Growing Degree Days 12 (Base 50)    
Moisture  
Dew Point 22 °F    
Average Humidity 22    
Maximum Humidity 33    
Minimum Humidity 6    
Precipitation  
Precipitation 0.00 in - - ()
Sea Level Pressure  
Sea Level Pressure 29.87 in    
Wind  
Wind Speed 5 mph (NW)    
Max Wind Speed 10 mph    
Max Gust Speed -    
Visibility 10 miles    
Events      
Averages and records for this station are not official NWS values.
T = Trace of Precipitation, MM = Missing Value Source: NWS Daily Summary

Daily Weather History Graph

Daily Weather History Graph

Search for Another Location

Airport or City:

Trip Planner

Search our weather history database for the weather conditions in past years. The results will help you decide how hot, cold, wet, or windy it might be!

Date:

Astronomy

Oct. 27, 2014 Rise Set
Actual Time 6:44 AM MST 5:33 PM MST
Civil Twilight 6:18 AM MST 6:00 PM MST
Nautical Twilight 5:47 AM MST 6:30 PM MST
Astronomical Twilight 5:17 AM MST 7:01 PM MST
Moon 10:20 AM MST (10/27) 8:46 PM MST (10/27)
Length of Visible Light 11h 42m
Length of Day
10h 49m
Waxing Crescent, 16% of the Moon is Illuminated
Oct 27
Waxing Crescent
Oct 30
First Quarter
Nov 6
Full
Nov 14
Last Quarter
Nov 22
New

Hourly Weather History & Observations

Time (MST) Temp. Dew Point Humidity Pressure Visibility Wind Dir Wind Speed Gust Speed Precip Events Conditions
12:53 AM 64.0 °F 27.0 °F 25% 29.74 in 10.0 mi West 5.8 mph - N/A   Clear
1:53 AM 63.0 °F 25.0 °F 24% 29.75 in 10.0 mi West 3.5 mph - N/A   Clear
2:53 AM 59.0 °F 26.1 °F 28% 29.77 in 10.0 mi NNW 8.1 mph - N/A   Clear
3:53 AM 57.9 °F 27.0 °F 31% 29.78 in 10.0 mi NNW 6.9 mph - N/A   Clear
4:53 AM 55.9 °F 27.0 °F 33% 29.81 in 10.0 mi WNW 4.6 mph - N/A   Clear
5:53 AM 55.0 °F 26.1 °F 33% 29.83 in 10.0 mi West 4.6 mph - N/A   Clear
6:53 AM 55.9 °F 24.1 °F 29% 29.85 in 10.0 mi West 6.9 mph - N/A   Clear
7:53 AM 55.0 °F 23.0 °F 29% 29.88 in 10.0 mi West 6.9 mph - N/A   Clear
8:53 AM 57.9 °F 23.0 °F 26% 29.91 in 10.0 mi West 6.9 mph - N/A   Clear
9:53 AM 62.1 °F 24.1 °F 23% 29.91 in 10.0 mi NW 8.1 mph - N/A   Clear
10:53 AM 64.0 °F 23.0 °F 21% 29.91 in 10.0 mi Variable 3.5 mph - N/A   Clear
11:53 AM 66.9 °F 21.9 °F 18% 29.89 in 10.0 mi North 10.4 mph - N/A   Clear
12:53 PM 66.9 °F 23.0 °F 19% 29.86 in 10.0 mi Variable 4.6 mph - N/A   Clear
1:53 PM 69.1 °F 21.9 °F 17% 29.85 in 10.0 mi ENE 5.8 mph - N/A   Clear
2:53 PM 68.0 °F 15.1 °F 13% 29.85 in 10.0 mi North 4.6 mph - N/A   Clear
3:53 PM 69.1 °F 17.1 °F 14% 29.86 in 10.0 mi East 4.6 mph - N/A   Clear
4:53 PM 68.0 °F 17.1 °F 14% 29.86 in 10.0 mi East 4.6 mph - N/A   Clear
5:53 PM 63.0 °F 16.0 °F 16% 29.88 in 10.0 mi East 3.5 mph - N/A   Clear
6:53 PM 60.1 °F 19.0 °F 20% 29.91 in 10.0 mi Calm Calm - N/A   Clear
7:53 PM 59.0 °F 17.1 °F 20% 29.93 in 10.0 mi Calm Calm - N/A   Clear
8:53 PM 55.0 °F 19.9 °F 25% 29.95 in 10.0 mi Calm Calm - N/A   Clear
9:53 PM 54.0 °F 16.0 °F 22% 29.96 in 10.0 mi SE 3.5 mph - N/A   Clear
10:53 PM 53.1 °F 21.0 °F 29% 29.97 in 10.0 mi Calm Calm - N/A   Clear
11:53 PM 52.0 °F 21.0 °F 30% 29.97 in 10.0 mi WSW 3.5 mph - N/A   Clear